GW1815 Weather Reports


Display with metric or nautical units.
time (UTC)temp
F
wind
direction
speed
MPH
gust
MPH
rain 1hr
in
rain 24hr
in
rain mn
in
humidity
%
barometer
mb
20260906003040 70 38 4.0 15.0 0.00 0.00 0.00 90 1016.2
20260906001541 70 5 5.0 16.0 0.00 0.00 0.00 90 1016.4
20260906000051 70 19 7.0 15.0 0.00 0.00 0.00 90 1016.2
20260905234540 70 31 5.0 12.0 0.00 0.00 0.00 90 1016.2
20260905233041 71 9 6.0 15.0 0.00 0.00 0.00 89 1016.3
20260905231539 71 64 9.0 20.0 0.00 0.00 0.00 88 1016.2
20260905230040 72 34 6.0 18.0 0.00 0.00 0.00 88 1016.1
20260905224548 72 28 5.0 12.0 0.00 0.00 0.00 88 1016.0
20260905223039 72 28 7.0 15.0 0.00 0.00 0.00 87 1015.9
20260905221540 72 30 6.0 16.0 0.00 0.00 0.00 86 1016.1
20260905220039 72 351 9.0 21.0 0.00 0.00 0.00 86 1015.8
20260905214541 73 352 5.0 17.0 0.00 0.00 0.00 85 1015.6
20260905213044 74 13 7.0 17.0 0.00 0.00 0.00 84 1015.3
20260905211549 75 360 12.0 22.0 0.00 0.00 0.00 82 1015.2
20260905210044 76 24 8.0 20.0 0.00 0.00 0.00 81 1015.2
20260905204543 77 37 6.0 15.0 0.00 0.00 0.00 82 1015.1
20260905203041 78 60 8.0 19.0 0.00 0.00 0.00 81 1015.1
20260905201540 78 13 7.0 16.0 0.00 0.00 0.00 81 1015.4
20260905200042 79 27 7.0 19.0 0.00 0.00 0.00 80 1015.5
20260905194536 79 12 7.0 14.0 0.00 0.00 0.00 80 1015.4
20260905193039 79 17 7.0 14.0 0.00 0.00 0.00 82 1015.4
20260905191538 78 35 9.0 13.0 0.00 0.00 0.00 82 1015.4
20260905190038 77 5 4.0 11.0 0.00 0.00 0.00 85 1015.4
20260905184559 76 342 2.0 10.0 0.00 0.00 0.00 86 1015.6
20260905183047 75 348 4.0 9.0 0.00 0.00 0.00 87 1015.7
20260905181552 75 17 3.0 9.0 0.00 0.00 0.00 87 1015.7
20260905180043 75 333 4.0 13.0 0.00 0.00 0.00 87 1015.6
20260905174536 75 360 7.0 14.0 0.00 0.00 0.00 86 1015.6
20260905173039 75 360 4.0 13.0 0.00 0.00 0.00 87 1015.6
20260905171542 75 28 6.0 10.0 0.00 0.00 0.00 86 1015.7
20260905170039 75 22 7.0 12.0 0.00 0.00 0.00 85 1015.8
20260905164535 75 350 4.0 12.0 0.00 0.00 0.00 86 1015.8
20260905163040 75 313 3.0 10.0 0.00 0.00 0.00 87 1015.7
20260905161536 74 360 4.0 11.0 0.00 0.00 0.00 87 1015.7
20260905160047 74 15 6.0 12.0 0.00 0.00 0.00 88 1015.7
20260905154605 74 17 5.0 11.0 0.00 0.00 0.00 89 1015.6
20260905153039 74 338 4.0 11.0 0.00 0.00 0.00 89 1015.6
20260905151540 74 360 4.0 10.0 0.00 0.00 0.00 89 1015.4
20260905150043 74 44 5.0 11.0 0.00 0.00 0.00 90 1015.2
20260905144541 74 355 4.0 11.0 0.00 0.00 0.00 91 1015.3
20260905143039 73 5 3.0 11.0 0.00 0.00 0.00 92 1014.9
20260905141536 73 360 7.0 14.0 0.00 0.00 0.00 92 1014.9
20260905140046 73 344 3.0 11.0 0.00 0.00 0.00 93 1014.8
20260905134539 72 19 5.0 11.0 0.00 0.00 0.00 93 1014.6
20260905133044 72 360 3.0 11.0 0.00 0.00 0.00 93 1014.9
20260905131542 72 5 6.0 12.0 0.00 0.00 0.00 94 1014.9
20260905130046 72 346 5.0 11.0 0.00 0.00 0.00 94 1014.5
20260905124539 72 355 5.0 11.0 0.00 0.00 0.00 93 1014.4
20260905123039 72 355 4.0 9.0 0.00 0.00 0.00 93 1014.0
20260905121535 71 10 3.0 8.0 0.00 0.00 0.00 94 1013.8
20260905120045 71 5 2.0 5.0 0.00 0.00 0.00 94 1013.7
20260905114538 71 5 2.0 8.0 0.00 0.00 0.00 94 1013.3
20260905113048 71 30 2.0 8.0 0.00 0.00 0.00 93 1013.4
20260905111603 71 32 3.0 8.0 0.00 0.00 0.00 93 1013.0
20260905110042 71 24 3.0 11.0 0.00 0.00 0.00 93 1013.0
20260905104541 71 28 5.0 11.0 0.00 0.00 0.00 93 1012.9
20260905103039 70 360 3.0 8.0 0.00 0.00 0.00 93 1013.1
20260905101549 70 38 3.0 9.0 0.00 0.00 0.00 93 1013.0
20260905100043 70 13 4.0 9.0 0.00 0.00 0.00 93 1013.1
20260905094539 70 9 4.0 11.0 0.00 0.00 0.00 93 1013.1
20260905093039 71 19 1.0 4.0 0.00 0.00 0.00 93 1012.9
20260905091539 71 351 1.0 3.0 0.00 0.00 0.00 93 1012.7
20260905090039 71 0 0.0 2.0 0.00 0.00 0.00 93 1012.7
20260905084548 71 351 0.0 3.0 0.00 0.00 0.00 93 1012.7
20260905083038 71 351 1.0 3.0 0.00 0.00 0.00 93 1012.5
20260905081538 71 351 1.0 4.0 0.00 0.00 0.00 93 1012.4
20260905080048 71 350 3.0 5.0 0.00 0.00 0.00 92 1012.4
20260905074543 71 184 0.0 3.0 0.00 0.00 0.00 92 1012.2
20260905073046 71 184 1.0 4.0 0.00 0.00 0.00 92 1012.1
20260905071540 71 0 0.0 0.0 0.00 0.00 0.00 92 1012.3
20260905070040 72 0 0.0 0.0 0.00 0.00 0.00 92 1012.5
20260905064539 72 0 0.0 0.0 0.00 0.00 0.00 92 1012.7
20260905063036 72 0 0.0 0.0 0.00 0.00 0.00 91 1012.5
20260905061542 72 26 0.0 4.0 0.00 0.00 0.00 91 1012.7
20260905060039 72 0 0.0 0.0 0.00 0.00 0.00 90 1012.8
20260905054539 72 0 0.0 1.0 0.00 0.00 0.00 90 1012.8
20260905053042 73 0 0.0 0.0 0.00 0.00 0.00 90 1012.9
20260905051544 73 0 0.0 2.0 0.00 0.00 0.00 90 1013.0
20260905050039 73 0 0.0 2.0 0.00 0.00 0.00 90 1012.9
20260905044541 74 198 0.0 1.0 0.00 0.00 0.00 89 1012.9
20260905043042 74 0 0.0 2.0 0.00 0.00 0.00 89 1012.9
20260905041541 74 0 0.0 2.0 0.00 0.00 0.00 90 1013.2
20260905040042 74 198 2.0 4.0 0.00 0.00 0.00 90 1013.1
20260905034543 74 124 2.0 8.0 0.00 0.00 0.00 90 1013.1
20260905033107 74 167 5.0 10.0 0.00 0.00 0.00 90 1013.4
20260905031552 74 0 0.0 3.0 0.00 0.00 0.00 90 1012.9
20260905030051 74 73 1.0 3.0 0.00 0.00 0.00 90 1013.4
20260905024539 74 0 0.0 5.0 0.00 0.00 0.00 89 1013.6
20260905023050 74 17 1.0 4.0 0.00 0.00 0.00 89 1013.5
20260905021541 74 0 0.0 5.0 0.00 0.00 0.00 89 1013.4
20260905020038 74 95 2.0 4.0 0.00 0.00 0.00 89 1013.5
20260905014539 74 24 3.0 8.0 0.00 0.00 0.00 89 1013.4
20260905013043 75 32 1.0 5.0 0.00 0.00 0.00 88 1013.5
20260905011537 75 65 3.0 7.0 0.00 0.00 0.00 87 1013.3
20260905010043 76 30 3.0 9.0 0.00 0.00 0.00 86 1012.6
20260905004540 76 56 2.0 7.0 0.00 0.00 0.00 85 1012.3